Location: Hanover
(52.3667°N, 9.7167°E)
Time: 06:27:38
(UTC+02:00)

Envisat - Pass Details

Date: 27 September 2024
Orbit: 762 x 764 km, 98.3° (Epoch: 04 October)

Event Time Altitude Azimuth Distance (km) Brightness Sun altitude
Rises 03:31:42 0° 23° (NNE) 3,239 7.2 -31.7°
Reaches altitude 10° 03:34:27 10° 38° (NE) 2,308 6.3 -31.4°
Maximum altitude 03:38:32 24° 91° (E) 1,549 4.9 -31.0°
Enters shadow 03:40:08 21° 119° (ESE) 1,687 4.9 -30.8°
